Time,TemperatureF,DewpointF,PressureIn,WindDirection,WindDirectionDegrees,WindSpeedMPH,WindSpeedGustMPH,Humidity,HourlyPrecipIn,Conditions,Clouds,dailyrainin,SoftwareType,DateUTC
2013-01-26 00:04:00,19.8,13.2,30.07,WNW,292,1.0,3.0,75,0.00,,,0.00,Wunderground PWS Mod,2013-01-26 05:04:00,
2013-01-26 00:14:00,20.0,13.6,30.06,WNW,292,3.0,5.0,76,0.00,,,0.00,Wunderground PWS Mod,2013-01-26 05:14:00,
2013-01-26 00:16:00,19.6,13.3,30.09,WNW,293,2.0,5.0,76,0.00,,,0.00,Wunderground PWS Mod,2013-01-26 05:16:00,
2013-01-26 00:18:00,20.0,13.6,30.06,WNW,292,2.0,5.0,76,0.00,,,0.00,Wunderground PWS Mod,2013-01-26 05:18:00,
2013-01-26 00:24:00,20.1,13.4,30.06,WNW,292,3.0,5.0,75,0.00,,,0.00,Wunderground PWS Mod,2013-01-26 05:24:00,
2013-01-26 00:34:00,20.5,13.8,30.06,WNW,290,1.0,5.0,75,0.00,,,0.00,Wunderground PWS Mod,2013-01-26 05:34:00,
2013-01-26 00:44:00,20.7,14.0,30.06,West,280,3.0,5.0,75,0.00,,,0.00,Wunderground PWS Mod,2013-01-26 05:44:00,
2013-01-26 00:46:00,20.1,13.4,30.09,WNW,293,3.0,5.0,75,0.00,,,0.00,Wunderground PWS Mod,2013-01-26 05:46:00,
2013-01-26 00:54:00,21.0,14.0,30.07,WNW,282,4.0,5.0,74,0.00,,,0.00,Wunderground PWS Mod,2013-01-26 05:54:00,
2013-01-26 01:04:00,21.2,14.2,30.07,WNW,295,3.0,5.0,74,0.00,,,0.00,Wunderground PWS Mod,2013-01-26 06:04:00,
2013-01-26 01:14:00,21.4,14.1,30.07,WNW,284,3.0,7.0,73,0.00,,,0.00,Wunderground PWS Mod,2013-01-26 06:14:00,
2013-01-26 01:18:00,21.4,13.8,30.09,WNW,293,4.0,7.0,72,0.00,,,0.00,Wunderground PWS Mod,2013-01-26 06:18:00,
2013-01-26 01:24:00,21.5,13.9,30.07,WNW,290,5.0,7.0,72,0.00,,,0.00,Wunderground PWS Mod,2013-01-26 06:24:00,
2013-01-26 01:34:00,21.6,14.0,30.07,WNW,296,4.0,7.0,72,0.00,,,0.00,Wunderground PWS Mod,2013-01-26 06:34:00,
2013-01-26 01:44:00,21.7,14.1,30.06,WNW,300,2.0,7.0,72,0.00,,,0.00,Wunderground PWS Mod,2013-01-26 06:44:00,
2013-01-26 01:48:00,21.7,14.1,30.09,WNW,293,3.0,7.0,72,0.00,,,0.00,Wunderground PWS Mod,2013-01-26 06:48:00,
2013-01-26 01:54:00,21.7,14.1,30.06,WNW,296,3.0,7.0,72,0.00,,,0.00,Wunderground PWS Mod,2013-01-26 06:54:00,
2013-01-26 02:04:00,21.8,14.2,30.07,WNW,297,2.0,7.0,72,0.00,,,0.00,Wunderground PWS Mod,2013-01-26 07:04:00,
2013-01-26 02:14:00,21.9,14.3,30.07,WNW,295,1.0,7.0,72,0.00,,,0.00,Wunderground PWS Mod,2013-01-26 07:14:00,
2013-01-26 02:16:00,21.7,14.1,30.09,WNW,293,3.0,7.0,72,0.00,,,0.00,Wunderground PWS Mod,2013-01-26 07:16:00,
2013-01-26 02:24:00,21.9,14.3,30.07,NW,310,3.0,7.0,72,0.00,,,0.00,Wunderground PWS Mod,2013-01-26 07:24:00,
2013-01-26 02:34:00,21.9,14.3,30.07,NW,313,1.0,7.0,72,0.00,,,0.00,Wunderground PWS Mod,2013-01-26 07:34:00,
2013-01-26 02:44:00,21.9,14.3,30.08,NW,314,2.0,7.0,72,0.00,,,0.00,Wunderground PWS Mod,2013-01-26 07:44:00,
2013-01-26 02:48:00,21.9,14.3,30.11,NW,315,2.0,4.0,72,0.00,,,0.00,Wunderground PWS Mod,2013-01-26 07:48:00,
2013-01-26 02:54:00,22.0,14.3,30.08,NW,314,3.0,7.0,72,0.00,,,0.00,Wunderground PWS Mod,2013-01-26 07:54:00,
2013-01-26 03:04:00,22.0,14.3,30.08,NW,316,2.0,7.0,72,0.00,,,0.00,Wunderground PWS Mod,2013-01-26 08:04:00,
2013-01-26 03:10:00,21.9,14.3,30.11,NW,315,2.0,4.0,72,0.00,,,0.00,Wunderground PWS Mod,2013-01-26 08:10:00,
2013-01-26 03:12:00,21.9,14.3,30.11,NW,315,2.0,4.0,72,0.00,,,0.00,Wunderground PWS Mod,2013-01-26 08:12:00,
2013-01-26 03:14:00,22.1,14.4,30.08,NW,322,1.0,7.0,72,0.00,,,0.00,Wunderground PWS Mod,2013-01-26 08:14:00,
2013-01-26 03:24:00,22.1,14.4,30.08,NW,322,2.0,7.0,72,0.00,,,0.00,Wunderground PWS Mod,2013-01-26 08:24:00,
2013-01-26 03:34:00,22.1,14.4,30.09,NW,322,3.0,7.0,72,0.00,,,0.00,Wunderground PWS Mod,2013-01-26 08:34:00,
2013-01-26 03:44:00,22.1,14.4,30.09,NW,323,4.0,7.0,72,0.00,,,0.00,Wunderground PWS Mod,2013-01-26 08:44:00,
2013-01-26 03:46:00,22.1,14.4,30.11,NW,315,2.0,5.0,72,0.00,,,0.00,Wunderground PWS Mod,2013-01-26 08:46:00,
2013-01-26 03:54:00,22.1,14.1,30.09,NW,323,1.0,7.0,71,0.00,,,0.00,Wunderground PWS Mod,2013-01-26 08:54:00,
2013-01-26 04:04:00,22.1,14.1,30.10,NW,323,1.0,5.0,71,0.00,,,0.00,Wunderground PWS Mod,2013-01-26 09:04:00,
2013-01-26 04:10:00,22.1,14.4,30.12,NW,315,2.0,5.0,72,0.00,,,0.00,Wunderground PWS Mod,2013-01-26 09:10:00,
2013-01-26 04:12:00,22.1,14.4,30.12,NW,315,2.0,5.0,72,0.00,,,0.00,Wunderground PWS Mod,2013-01-26 09:12:00,
2013-01-26 04:14:00,22.0,14.3,30.10,NW,323,0.0,5.0,72,0.00,,,0.00,Wunderground PWS Mod,2013-01-26 09:14:00,
2013-01-26 04:24:00,22.0,14.3,30.10,NW,323,1.0,5.0,72,0.00,,,0.00,Wunderground PWS Mod,2013-01-26 09:24:00,
2013-01-26 04:34:00,21.9,14.3,30.11,NW,323,2.0,5.0,72,0.00,,,0.00,Wunderground PWS Mod,2013-01-26 09:34:00,
2013-01-26 04:44:00,21.9,14.3,30.11,NW,323,2.0,5.0,72,0.00,,,0.00,Wunderground PWS Mod,2013-01-26 09:44:00,
2013-01-26 04:48:00,21.9,14.3,30.15,NW,315,2.0,4.0,72,0.00,,,0.00,Wunderground PWS Mod,2013-01-26 09:48:00,
2013-01-26 04:54:00,21.9,14.3,30.12,NW,323,1.0,5.0,72,0.00,,,0.00,Wunderground PWS Mod,2013-01-26 09:54:00,
2013-01-26 05:04:00,21.7,14.1,30.12,NW,323,1.0,4.0,72,0.00,,,0.00,Wunderground PWS Mod,2013-01-26 10:04:00,
2013-01-26 05:14:00,21.7,14.1,30.12,NW,323,0.0,4.0,72,0.00,,,0.00,Wunderground PWS Mod,2013-01-26 10:14:00,
2013-01-26 05:18:00,21.7,14.1,30.15,NW,315,1.0,3.0,72,0.00,,,0.00,Wunderground PWS Mod,2013-01-26 10:18:00,
2013-01-26 05:24:00,21.7,14.1,30.12,NW,323,0.0,4.0,72,0.00,,,0.00,Wunderground PWS Mod,2013-01-26 10:24:00,
2013-01-26 05:34:00,21.7,14.1,30.13,NW,323,0.0,4.0,72,0.00,,,0.00,Wunderground PWS Mod,2013-01-26 10:34:00,
2013-01-26 05:44:00,21.7,14.1,30.13,NW,323,0.0,4.0,72,0.00,,,0.00,Wunderground PWS Mod,2013-01-26 10:44:00,
2013-01-26 05:46:00,21.7,14.1,30.15,NW,315,1.0,3.0,72,0.00,,,0.00,Wunderground PWS Mod,2013-01-26 10:46:00,
2013-01-26 05:54:00,21.8,14.2,30.14,NW,323,1.0,4.0,72,0.00,,,0.00,Wunderground PWS Mod,2013-01-26 10:54:00,
2013-01-26 06:04:00,22.0,14.3,30.14,NW,323,1.0,3.0,72,0.00,,,0.00,Wunderground PWS Mod,2013-01-26 11:04:00,
2013-01-26 06:10:00,21.8,14.2,30.16,NW,315,1.0,2.0,72,0.00,,,0.00,Wunderground PWS Mod,2013-01-26 11:10:00,
2013-01-26 06:12:00,21.8,14.2,30.16,NW,315,1.0,2.0,72,0.00,,,0.00,Wunderground PWS Mod,2013-01-26 11:12:00,
2013-01-26 06:14:00,21.8,14.2,30.14,NW,323,1.0,3.0,72,0.00,,,0.00,Wunderground PWS Mod,2013-01-26 11:14:00,
2013-01-26 06:24:00,21.8,14.2,30.15,NW,323,1.0,3.0,72,0.00,,,0.00,Wunderground PWS Mod,2013-01-26 11:24:00,
2013-01-26 06:34:00,21.8,14.2,30.15,NW,323,0.0,3.0,72,0.00,,,0.00,Wunderground PWS Mod,2013-01-26 11:34:00,
2013-01-26 06:44:00,22.0,14.3,30.16,NW,323,0.0,3.0,72,0.00,,,0.00,Wunderground PWS Mod,2013-01-26 11:44:00,
2013-01-26 06:48:00,21.9,14.3,30.19,NW,315,0.0,2.0,72,0.00,,,0.00,Wunderground PWS Mod,2013-01-26 11:48:00,
2013-01-26 06:54:00,22.0,14.3,30.16,NW,323,0.0,3.0,72,0.00,,,0.00,Wunderground PWS Mod,2013-01-26 11:54:00,
2013-01-26 07:04:00,22.2,14.5,30.16,NW,323,0.0,2.0,72,0.00,,,0.00,Wunderground PWS Mod,2013-01-26 12:04:00,
2013-01-26 07:14:00,22.2,14.5,30.17,NW,323,0.0,2.0,72,0.00,,,0.00,Wunderground PWS Mod,2013-01-26 12:14:00,
2013-01-26 07:18:00,22.2,14.5,30.20,NW,315,1.0,2.0,72,0.00,,,0.00,Wunderground PWS Mod,2013-01-26 12:18:00,
2013-01-26 07:24:00,22.1,14.4,30.17,NW,323,0.0,2.0,72,0.00,,,0.00,Wunderground PWS Mod,2013-01-26 12:24:00,
2013-01-26 07:34:00,22.1,14.8,30.17,NW,323,1.0,2.0,73,0.00,,,0.00,Wunderground PWS Mod,2013-01-26 12:34:00,
2013-01-26 07:44:00,22.1,14.4,30.17,NW,323,0.0,2.0,72,0.00,,,0.00,Wunderground PWS Mod,2013-01-26 12:44:00,
2013-01-26 07:50:00,22.3,14.3,30.20,NW,315,0.0,2.0,71,0.00,,,0.00,Wunderground PWS Mod,2013-01-26 12:50:00,
2013-01-26 07:52:00,22.3,14.3,30.20,NW,315,0.0,2.0,71,0.00,,,0.00,Wunderground PWS Mod,2013-01-26 12:52:00,
2013-01-26 07:54:00,22.4,14.7,30.17,NW,323,1.0,2.0,72,0.00,,,0.00,Wunderground PWS Mod,2013-01-26 12:54:00,
2013-01-26 08:04:00,22.6,14.6,30.17,NW,323,1.0,2.0,71,0.00,,,0.00,Wunderground PWS Mod,2013-01-26 13:04:00,
2013-01-26 08:14:00,23.1,15.1,30.18,NW,323,0.0,2.0,71,0.00,,,0.00,Wunderground PWS Mod,2013-01-26 13:14:00,
2013-01-26 08:16:00,22.3,14.3,30.20,NW,315,0.0,2.0,71,0.00,,,0.00,Wunderground PWS Mod,2013-01-26 13:16:00,
2013-01-26 08:24:00,23.3,15.0,30.18,NW,323,1.0,2.0,70,0.00,,,0.00,Wunderground PWS Mod,2013-01-26 13:24:00,
2013-01-26 08:34:00,23.2,14.9,30.19,NW,323,1.0,2.0,70,0.00,,,0.00,Wunderground PWS Mod,2013-01-26 13:34:00,
2013-01-26 08:44:00,23.2,14.9,30.19,NW,323,0.0,2.0,70,0.00,,,0.00,Wunderground PWS Mod,2013-01-26 13:44:00,
2013-01-26 08:48:00,23.3,14.6,30.22,NW,315,1.0,3.0,69,0.00,,,0.00,Wunderground PWS Mod,2013-01-26 13:48:00,
2013-01-26 08:54:00,23.4,14.7,30.20,NW,323,1.0,2.0,69,0.00,,,0.00,Wunderground PWS Mod,2013-01-26 13:54:00,
2013-01-26 09:04:00,23.5,14.8,30.19,NW,323,0.0,2.0,69,0.00,,,0.00,Wunderground PWS Mod,2013-01-26 14:04:00,
2013-01-26 09:10:00,23.3,14.6,30.22,NW,315,1.0,3.0,69,0.00,,,0.00,Wunderground PWS Mod,2013-01-26 14:10:00,
2013-01-26 09:12:00,23.3,14.6,30.22,NW,315,1.0,3.0,69,0.00,,,0.00,Wunderground PWS Mod,2013-01-26 14:12:00,
2013-01-26 09:14:00,23.8,15.1,30.19,NW,323,1.0,3.0,69,0.00,,,0.00,Wunderground PWS Mod,2013-01-26 14:14:00,
2013-01-26 09:24:00,24.1,14.7,30.20,NW,323,2.0,3.0,67,0.00,,,0.00,Wunderground PWS Mod,2013-01-26 14:24:00,
2013-01-26 09:34:00,24.5,14.8,30.20,NNE,24,1.0,3.0,66,0.00,,,0.00,Wunderground PWS Mod,2013-01-26 14:34:00,
2013-01-26 09:44:00,24.7,15.3,30.21,NNE,24,1.0,4.0,67,0.00,,,0.00,Wunderground PWS Mod,2013-01-26 14:44:00,
2013-01-26 09:48:00,24.9,14.4,30.24,NNE,23,1.0,5.0,64,0.00,,,0.00,Wunderground PWS Mod,2013-01-26 14:48:00,
2013-01-26 09:54:00,25.1,15.3,30.21,NNE,16,1.0,4.0,66,0.00,,,0.00,Wunderground PWS Mod,2013-01-26 14:54:00,
2013-01-26 10:04:00,25.6,15.1,30.21,NNE,16,2.0,4.0,64,0.00,,,0.00,Wunderground PWS Mod,2013-01-26 15:04:00,
2013-01-26 10:10:00,24.9,14.4,30.24,NNE,23,1.0,5.0,64,0.00,,,0.00,Wunderground PWS Mod,2013-01-26 15:10:00,
2013-01-26 10:12:00,24.9,14.4,30.24,NNE,23,1.0,5.0,64,0.00,,,0.00,Wunderground PWS Mod,2013-01-26 15:12:00,
2013-01-26 10:14:00,26.0,15.1,30.22,NNE,13,0.0,5.0,63,0.00,,,0.00,Wunderground PWS Mod,2013-01-26 15:14:00,
2013-01-26 10:24:00,26.3,15.0,30.22,NW,316,3.0,5.0,62,0.00,,,0.00,Wunderground PWS Mod,2013-01-26 15:24:00,
2013-01-26 10:34:00,26.5,15.2,30.22,NNE,24,3.0,5.0,62,0.00,,,0.00,Wunderground PWS Mod,2013-01-26 15:34:00,
2013-01-26 10:44:00,26.6,14.9,30.22,NNE,16,2.0,5.0,61,0.00,,,0.00,Wunderground PWS Mod,2013-01-26 15:44:00,
2013-01-26 10:48:00,26.9,14.9,30.25,NNE,23,2.0,6.0,60,0.00,,,0.00,Wunderground PWS Mod,2013-01-26 15:48:00,
2013-01-26 10:54:00,27.3,15.2,30.23,NNE,13,3.0,5.0,60,0.00,,,0.00,Wunderground PWS Mod,2013-01-26 15:54:00,
2013-01-26 11:04:00,27.7,15.6,30.23,NW,321,2.0,5.0,60,0.00,,,0.00,Wunderground PWS Mod,2013-01-26 16:04:00,
2013-01-26 11:14:00,27.9,15.0,30.23,NW,324,5.0,6.0,58,0.00,,,0.00,Wunderground PWS Mod,2013-01-26 16:14:00,
2013-01-26 11:18:00,28.0,14.3,30.25,NNW,338,5.0,11.0,56,0.00,,,0.00,Wunderground PWS Mod,2013-01-26 16:18:00,
2013-01-26 11:24:00,28.0,14.7,30.23,NNW,333,2.0,8.0,57,0.00,,,0.00,Wunderground PWS Mod,2013-01-26 16:24:00,
2013-01-26 11:34:00,28.4,14.7,30.23,North,3,9.0,9.0,56,0.00,,,0.00,Wunderground PWS Mod,2013-01-26 16:34:00,
2013-01-26 11:44:00,28.5,14.4,30.22,North,0,5.0,11.0,55,0.00,,,0.00,Wunderground PWS Mod,2013-01-26 16:44:00,
2013-01-26 11:46:00,28.0,14.3,30.25,NNW,338,5.0,11.0,56,0.00,,,0.00,Wunderground PWS Mod,2013-01-26 16:46:00,
2013-01-26 11:54:00,28.9,14.7,30.22,North,4,6.0,11.0,55,0.00,,,0.00,Wunderground PWS Mod,2013-01-26 16:54:00,
2013-01-26 12:04:00,29.0,14.8,30.21,NNW,343,3.0,11.0,55,0.00,,,0.00,Wunderground PWS Mod,2013-01-26 17:04:00,
2013-01-26 12:14:00,29.0,14.8,30.21,WNW,297,5.0,12.0,55,0.00,,,0.00,Wunderground PWS Mod,2013-01-26 17:14:00,
2013-01-26 12:16:00,28.7,14.1,30.24,North,0,5.0,12.0,54,0.00,,,0.00,Wunderground PWS Mod,2013-01-26 17:16:00,
2013-01-26 12:24:00,29.3,14.7,30.20,NW,316,4.0,12.0,54,0.00,,,0.00,Wunderground PWS Mod,2013-01-26 17:24:00,
2013-01-26 12:34:00,29.4,14.4,30.19,NNW,330,3.0,12.0,53,0.00,,,0.00,Wunderground PWS Mod,2013-01-26 17:34:00,
2013-01-26 12:44:00,29.3,14.3,30.19,NNW,332,4.0,12.0,53,0.00,,,0.00,Wunderground PWS Mod,2013-01-26 17:44:00,
2013-01-26 12:48:00,29.7,14.2,30.21,North,0,4.0,13.0,52,0.00,,,0.00,Wunderground PWS Mod,2013-01-26 17:48:00,
2013-01-26 12:54:00,30.0,14.9,30.19,North,6,7.0,12.0,53,0.00,,,0.00,Wunderground PWS Mod,2013-01-26 17:54:00,
2013-01-26 13:04:00,30.6,14.6,30.18,WNW,288,13.0,13.0,51,0.00,,,0.00,Wunderground PWS Mod,2013-01-26 18:04:00,
2013-01-26 13:14:00,30.6,14.1,30.18,NNW,336,3.0,13.0,50,0.00,,,0.00,Wunderground PWS Mod,2013-01-26 18:14:00,
2013-01-26 13:18:00,30.9,14.4,30.21,North,0,6.0,14.0,50,0.00,,,0.00,Wunderground PWS Mod,2013-01-26 18:18:00,
2013-01-26 13:24:00,31.0,14.5,30.18,NNE,24,8.0,13.0,50,0.00,,,0.00,Wunderground PWS Mod,2013-01-26 18:24:00,
2013-01-26 13:34:00,31.9,15.3,30.18,NNW,340,5.0,13.0,50,0.00,,,0.00,Wunderground PWS Mod,2013-01-26 18:34:00,
2013-01-26 13:44:00,31.9,14.9,30.18,NW,311,11.0,14.0,49,0.00,,,0.00,Wunderground PWS Mod,2013-01-26 18:44:00,
2013-01-26 13:50:00,32.0,14.0,30.21,North,0,6.0,16.0,47,0.00,,,0.00,Wunderground PWS Mod,2013-01-26 18:50:00,
2013-01-26 13:52:00,32.0,14.0,30.21,North,0,6.0,16.0,47,0.00,,,0.00,Wunderground PWS Mod,2013-01-26 18:52:00,
2013-01-26 13:54:00,32.1,15.1,30.18,North,0,7.0,14.0,49,0.00,,,0.00,Wunderground PWS Mod,2013-01-26 18:54:00,
2013-01-26 14:04:00,32.1,14.1,30.18,North,359,6.0,14.0,47,0.00,,,0.00,Wunderground PWS Mod,2013-01-26 19:04:00,
2013-01-26 14:14:00,31.8,13.8,30.19,North,350,5.0,16.0,47,0.00,,,0.00,Wunderground PWS Mod,2013-01-26 19:14:00,
2013-01-26 14:16:00,32.0,14.0,30.21,North,0,6.0,16.0,47,0.00,,,0.00,Wunderground PWS Mod,2013-01-26 19:16:00,
2013-01-26 14:24:00,31.9,14.4,30.19,NW,313,6.0,16.0,48,0.00,,,0.00,Wunderground PWS Mod,2013-01-26 19:24:00,
2013-01-26 14:34:00,31.5,14.0,30.20,North,350,5.0,16.0,48,0.00,,,0.00,Wunderground PWS Mod,2013-01-26 19:34:00,
2013-01-26 14:44:00,31.4,13.9,30.20,NNW,346,8.0,19.0,48,0.00,,,0.00,Wunderground PWS Mod,2013-01-26 19:44:00,
2013-01-26 14:48:00,31.5,14.5,30.23,NNW,338,6.0,16.0,49,0.00,,,0.00,Wunderground PWS Mod,2013-01-26 19:48:00,
2013-01-26 14:54:00,31.5,14.5,30.21,North,3,6.0,19.0,49,0.00,,,0.00,Wunderground PWS Mod,2013-01-26 19:54:00,
2013-01-26 15:04:00,31.8,14.3,30.21,NNW,333,2.0,19.0,48,0.00,,,0.00,Wunderground PWS Mod,2013-01-26 20:04:00,
2013-01-26 15:14:00,31.6,14.1,30.21,North,9,6.0,19.0,48,0.00,,,0.00,Wunderground PWS Mod,2013-01-26 20:14:00,
2013-01-26 15:18:00,31.7,14.2,30.24,North,0,5.0,10.0,48,0.00,,,0.00,Wunderground PWS Mod,2013-01-26 20:18:00,
2013-01-26 15:24:00,31.7,14.2,30.21,NNW,334,7.0,19.0,48,0.00,,,0.00,Wunderground PWS Mod,2013-01-26 20:24:00,
2013-01-26 15:34:00,31.4,14.4,30.22,NNW,337,2.0,19.0,49,0.00,,,0.00,Wunderground PWS Mod,2013-01-26 20:34:00,
2013-01-26 15:44:00,31.5,14.5,30.22,North,1,2.0,19.0,49,0.00,,,0.00,Wunderground PWS Mod,2013-01-26 20:44:00,
2013-01-26 15:50:00,31.5,14.5,30.25,North,0,4.0,8.0,49,0.00,,,0.00,Wunderground PWS Mod,2013-01-26 20:50:00,
2013-01-26 15:52:00,31.5,14.5,30.25,North,0,4.0,8.0,49,0.00,,,0.00,Wunderground PWS Mod,2013-01-26 20:52:00,
2013-01-26 15:54:00,31.5,14.5,30.22,North,11,5.0,19.0,49,0.00,,,0.00,Wunderground PWS Mod,2013-01-26 20:54:00,
2013-01-26 16:04:00,31.3,14.3,30.22,North,0,3.0,10.0,49,0.00,,,0.00,Wunderground PWS Mod,2013-01-26 21:04:00,
2013-01-26 16:10:00,31.5,14.5,30.25,North,0,4.0,8.0,49,0.00,,,0.00,Wunderground PWS Mod,2013-01-26 21:10:00,
2013-01-26 16:12:00,31.5,14.5,30.25,North,0,4.0,8.0,49,0.00,,,0.00,Wunderground PWS Mod,2013-01-26 21:12:00,
2013-01-26 16:14:00,31.2,14.2,30.22,North,353,5.0,10.0,49,0.00,,,0.00,Wunderground PWS Mod,2013-01-26 21:14:00,
2013-01-26 16:24:00,31.1,14.6,30.23,NNW,348,4.0,10.0,50,0.00,,,0.00,Wunderground PWS Mod,2013-01-26 21:24:00,
2013-01-26 16:34:00,31.0,14.5,30.24,North,6,4.0,10.0,50,0.00,,,0.00,Wunderground PWS Mod,2013-01-26 21:34:00,
2013-01-26 16:44:00,31.0,15.0,30.24,North,0,2.0,10.0,51,0.00,,,0.00,Wunderground PWS Mod,2013-01-26 21:44:00,
2013-01-26 16:50:00,31.0,15.4,30.28,North,0,3.0,7.0,52,0.00,,,0.00,Wunderground PWS Mod,2013-01-26 21:50:00,
2013-01-26 16:52:00,31.0,15.4,30.28,North,0,3.0,7.0,52,0.00,,,0.00,Wunderground PWS Mod,2013-01-26 21:52:00,
2013-01-26 16:54:00,31.1,15.1,30.24,NNE,13,3.0,10.0,51,0.00,,,0.00,Wunderground PWS Mod,2013-01-26 21:54:00,
2013-01-26 17:04:00,30.7,14.7,30.25,North,1,3.0,10.0,51,0.00,,,0.00,Wunderground PWS Mod,2013-01-26 22:04:00,
2013-01-26 17:14:00,30.5,14.9,30.26,North,0,2.0,10.0,52,0.00,,,0.00,Wunderground PWS Mod,2013-01-26 22:14:00,
2013-01-26 17:18:00,30.4,15.3,30.29,North,0,3.0,8.0,53,0.00,,,0.00,Wunderground PWS Mod,2013-01-26 22:18:00,
2013-01-26 17:24:00,30.3,15.2,30.26,North,1,5.0,10.0,53,0.00,,,0.00,Wunderground PWS Mod,2013-01-26 22:24:00,
2013-01-26 17:34:00,30.1,15.0,30.26,North,351,2.0,10.0,53,0.00,,,0.00,Wunderground PWS Mod,2013-01-26 22:34:00,
2013-01-26 17:44:00,30.0,14.9,30.27,NNE,12,4.0,10.0,53,0.00,,,0.00,Wunderground PWS Mod,2013-01-26 22:44:00,
2013-01-26 17:46:00,30.4,15.3,30.29,North,0,3.0,8.0,53,0.00,,,0.00,Wunderground PWS Mod,2013-01-26 22:46:00,
2013-01-26 17:54:00,29.4,14.8,30.27,North,6,2.0,10.0,54,0.00,,,0.00,Wunderground PWS Mod,2013-01-26 22:54:00,
2013-01-26 18:04:00,29.2,15.0,30.28,North,6,2.0,8.0,55,0.00,,,0.00,Wunderground PWS Mod,2013-01-26 23:04:00,
2013-01-26 18:10:00,29.7,15.5,30.30,North,0,2.0,4.0,55,0.00,,,0.00,Wunderground PWS Mod,2013-01-26 23:10:00,
2013-01-26 18:12:00,29.7,15.5,30.30,North,0,2.0,4.0,55,0.00,,,0.00,Wunderground PWS Mod,2013-01-26 23:12:00,
2013-01-26 18:14:00,28.9,14.7,30.28,North,6,0.0,8.0,55,0.00,,,0.00,Wunderground PWS Mod,2013-01-26 23:14:00,
2013-01-26 18:24:00,28.5,14.8,30.28,North,6,1.0,8.0,56,0.00,,,0.00,Wunderground PWS Mod,2013-01-26 23:24:00,
2013-01-26 18:34:00,28.3,15.0,30.29,North,6,1.0,8.0,57,0.00,,,0.00,Wunderground PWS Mod,2013-01-26 23:34:00,
2013-01-26 18:44:00,28.2,14.9,30.29,North,6,0.0,8.0,57,0.00,,,0.00,Wunderground PWS Mod,2013-01-26 23:44:00,
2013-01-26 18:48:00,28.2,15.3,30.33,North,0,1.0,3.0,58,0.00,,,0.00,Wunderground PWS Mod,2013-01-26 23:48:00,
2013-01-26 18:54:00,28.3,15.0,30.30,North,6,0.0,8.0,57,0.00,,,0.00,Wunderground PWS Mod,2013-01-26 23:54:00,
2013-01-26 19:04:00,27.8,14.9,30.30,North,6,0.0,3.0,58,0.00,,,0.00,Wunderground PWS Mod,2013-01-27 00:04:00,
2013-01-26 19:14:00,27.4,15.3,30.31,North,6,0.0,3.0,60,0.00,,,0.00,Wunderground PWS Mod,2013-01-27 00:14:00,
2013-01-26 19:20:00,27.2,15.5,30.34,North,0,0.0,2.0,61,0.00,,,0.00,Wunderground PWS Mod,2013-01-27 00:20:00,
2013-01-26 19:22:00,27.2,15.5,30.34,North,0,0.0,2.0,61,0.00,,,0.00,Wunderground PWS Mod,2013-01-27 00:22:00,
2013-01-26 19:24:00,26.9,14.9,30.31,North,6,0.0,3.0,60,0.00,,,0.00,Wunderground PWS Mod,2013-01-27 00:24:00,
2013-01-26 19:34:00,26.5,14.9,30.31,North,6,0.0,3.0,61,0.00,,,0.00,Wunderground PWS Mod,2013-01-27 00:34:00,
2013-01-26 19:44:00,25.9,14.7,30.31,North,6,0.0,3.0,62,0.00,,,0.00,Wunderground PWS Mod,2013-01-27 00:44:00,
2013-01-26 19:48:00,26.0,15.1,30.34,North,0,0.0,2.0,63,0.00,,,0.00,Wunderground PWS Mod,2013-01-27 00:48:00,
2013-01-26 19:54:00,25.8,14.9,30.31,North,6,1.0,3.0,63,0.00,,,0.00,Wunderground PWS Mod,2013-01-27 00:54:00,
2013-01-26 20:04:00,25.7,14.8,30.32,North,6,0.0,2.0,63,0.00,,,0.00,Wunderground PWS Mod,2013-01-27 01:04:00,
2013-01-26 20:14:00,25.3,14.8,30.32,North,6,0.0,2.0,64,0.00,,,0.00,Wunderground PWS Mod,2013-01-27 01:14:00,
2013-01-26 20:18:00,25.1,15.0,30.36,North,0,0.0,1.0,65,0.00,,,0.00,Wunderground PWS Mod,2013-01-27 01:18:00,
2013-01-26 20:24:00,24.7,14.6,30.32,North,6,0.0,2.0,65,0.00,,,0.00,Wunderground PWS Mod,2013-01-27 01:24:00,
2013-01-26 20:34:00,24.4,14.3,30.33,North,6,0.0,2.0,65,0.00,,,0.00,Wunderground PWS Mod,2013-01-27 01:34:00,
2013-01-26 20:44:00,23.8,14.1,30.33,North,6,0.0,2.0,66,0.00,,,0.00,Wunderground PWS Mod,2013-01-27 01:44:00,
2013-01-26 20:48:00,23.6,14.6,30.37,North,0,0.0,1.0,68,0.00,,,0.00,Wunderground PWS Mod,2013-01-27 01:48:00,
2013-01-26 20:54:00,23.1,14.1,30.34,North,6,1.0,2.0,68,0.00,,,0.00,Wunderground PWS Mod,2013-01-27 01:54:00,
2013-01-26 21:04:00,23.2,14.2,30.34,North,6,0.0,1.0,68,0.00,,,0.00,Wunderground PWS Mod,2013-01-27 02:04:00,
2013-01-26 21:14:00,23.8,14.8,30.35,North,6,0.0,1.0,68,0.00,,,0.00,Wunderground PWS Mod,2013-01-27 02:14:00,
2013-01-26 21:20:00,23.6,14.6,30.39,N/A,-737280,0.0,0.0,68,0.00,,,0.00,Wunderground PWS Mod,2013-01-27 02:20:00,
2013-01-26 21:22:00,23.6,14.6,30.39,N/A,-737280,0.0,0.0,68,0.00,,,0.00,Wunderground PWS Mod,2013-01-27 02:22:00,
2013-01-26 21:24:00,23.7,14.3,30.36,North,6,0.0,1.0,67,0.00,,,0.00,Wunderground PWS Mod,2013-01-27 02:24:00,
2013-01-26 21:34:00,23.1,14.1,30.36,North,6,0.0,1.0,68,0.00,,,0.00,Wunderground PWS Mod,2013-01-27 02:34:00,
2013-01-26 21:44:00,22.9,14.2,30.37,North,6,0.0,1.0,69,0.00,,,0.00,Wunderground PWS Mod,2013-01-27 02:44:00,
2013-01-26 21:50:00,22.8,14.5,30.41,N/A,-737280,0.0,0.0,70,0.00,,,0.00,Wunderground PWS Mod,2013-01-27 02:50:00,
2013-01-26 21:52:00,22.8,14.5,30.41,N/A,-737280,0.0,0.0,70,0.00,,,0.00,Wunderground PWS Mod,2013-01-27 02:52:00,
2013-01-26 21:54:00,22.7,14.4,30.37,North,6,0.0,1.0,70,0.00,,,0.00,Wunderground PWS Mod,2013-01-27 02:54:00,
2013-01-26 22:04:00,22.3,14.0,30.38,North,6,0.0,0.0,70,0.00,,,0.00,Wunderground PWS Mod,2013-01-27 03:04:00,
2013-01-26 22:14:00,21.7,13.4,30.38,North,6,0.0,0.0,70,0.00,,,0.00,Wunderground PWS Mod,2013-01-27 03:14:00,
2013-01-26 22:18:00,21.4,13.5,30.41,North,0,0.0,2.0,71,0.00,,,0.00,Wunderground PWS Mod,2013-01-27 03:18:00,
2013-01-26 22:24:00,21.1,12.8,30.39,North,6,0.0,1.0,70,0.00,,,0.00,Wunderground PWS Mod,2013-01-27 03:24:00,
2013-01-26 22:34:00,20.4,12.5,30.39,North,6,0.0,1.0,71,0.00,,,0.00,Wunderground PWS Mod,2013-01-27 03:34:00,
2013-01-26 22:44:00,20.0,12.4,30.39,North,6,0.0,2.0,72,0.00,,,0.00,Wunderground PWS Mod,2013-01-27 03:44:00,
2013-01-26 22:50:00,20.0,12.4,30.43,North,0,0.0,1.0,72,0.00,,,0.00,Wunderground PWS Mod,2013-01-27 03:50:00,
2013-01-26 22:52:00,20.0,12.4,30.43,North,0,0.0,1.0,72,0.00,,,0.00,Wunderground PWS Mod,2013-01-27 03:52:00,
2013-01-26 22:54:00,19.9,12.3,30.40,North,6,0.0,2.0,72,0.00,,,0.00,Wunderground PWS Mod,2013-01-27 03:54:00,
2013-01-26 23:04:00,19.9,12.6,30.40,North,6,0.0,2.0,73,0.00,,,0.00,Wunderground PWS Mod,2013-01-27 04:04:00,
2013-01-26 23:14:00,20.1,12.8,30.41,North,6,0.0,2.0,73,0.00,,,0.00,Wunderground PWS Mod,2013-01-27 04:14:00,
2013-01-26 23:20:00,20.2,12.9,30.43,North,0,0.0,2.0,73,0.00,,,0.00,Wunderground PWS Mod,2013-01-27 04:20:00,
2013-01-26 23:22:00,20.2,12.9,30.43,North,0,0.0,2.0,73,0.00,,,0.00,Wunderground PWS Mod,2013-01-27 04:22:00,
2013-01-26 23:24:00,20.4,13.1,30.41,North,6,0.0,2.0,73,0.00,,,0.00,Wunderground PWS Mod,2013-01-27 04:24:00,
2013-01-26 23:34:00,20.1,12.8,30.41,North,6,2.0,2.0,73,0.00,,,0.00,Wunderground PWS Mod,2013-01-27 04:34:00,
2013-01-26 23:44:00,20.0,12.7,30.41,North,6,1.0,2.0,73,0.00,,,0.00,Wunderground PWS Mod,2013-01-27 04:44:00,
2013-01-26 23:50:00,19.9,13.3,30.43,North,0,1.0,3.0,75,0.00,,,0.00,Wunderground PWS Mod,2013-01-27 04:50:00,
2013-01-26 23:52:00,19.9,13.3,30.43,North,0,1.0,3.0,75,0.00,,,0.00,Wunderground PWS Mod,2013-01-27 04:52:00,
2013-01-26 23:54:00,19.8,12.5,30.41,North,6,1.0,2.0,73,0.00,,,0.00,Wunderground PWS Mod,2013-01-27 04:54:00,